Weather History for Air Force Academy, CO

Change the Weather History Date:

Monday, May 20, 2013

  Actual Average Record
Temperature  
Mean Temperature 46 °F -  
Max Temperature 60 °F 66 °F 84 °F (2005)
Min Temperature 34 °F 40 °F 33 °F (1997)
Degree Days  
Heating Degree Days 18    
Moisture  
Dew Point 40 °F    
Average Humidity 74    
Maximum Humidity 100    
Minimum Humidity 38    
Precipitation  
Precipitation 0.09 in - - ()
Sea Level Pressure  
Sea Level Pressure 29.97 in    
Wind  
Wind Speed 8 mph (NNW)    
Max Wind Speed 20 mph    
Max Gust Speed 26 mph    
Visibility 10 miles    
Events Rain , Thunderstorm    
Averages and records for this station are not official NWS values.
T = Trace of Precipitation, MM = Missing Value Source: NWS Daily Summary

Daily Weather History Graph

Daily Weather History Graph

Search for Another Location

Airport:

Trip Planner

Search our weather history database for the weather conditions in past years. The results will help you decide how hot, cold, wet, or windy it might be!

Date:

Astronomy

May. 20, 2013 Rise Set
Actual Time 5:42 AM MDT 8:09 PM MDT
Civil Twilight 5:11 AM MDT 8:40 PM MDT
Nautical Twilight 4:33 AM MDT 9:18 PM MDT
Astronomical Twilight 3:52 AM MDT 10:00 PM MDT
Moon 3:22 PM MDT (5/20) 2:35 AM MDT (5/20)
Length of Visible Light 15h 28m
Length of Day
14h 27m
Waxing Gibbous, 75% of the Moon is Illuminated
May 20
Waxing Gibbous
May 24
Full
May 31
Last Quarter
Jun 8
New
Jun 16
First Quarter

Hourly Weather History & Observations

Time (MDT) Temp. Windchill Dew Point Humidity Pressure Visibility Wind Dir Wind Speed Gust Speed Precip Events Conditions
12:58 AM 37.0 °F 32.4 °F 32.7 °F 84% 29.81 in 10.0 mi North 5.8 mph - N/A   Clear
1:58 AM 36.3 °F 33.7 °F 30.7 °F 80% 29.81 in 10.0 mi North 3.5 mph - N/A   Clear
2:58 AM 34.7 °F 29.6 °F 29.7 °F 82% 29.81 in 10.0 mi North 5.8 mph - N/A   Clear
3:58 AM 34.0 °F 26.6 °F 28.2 °F 79% 29.81 in 10.0 mi North 9.2 mph - N/A   Clear
4:58 AM 34.5 °F 27.9 °F 28.6 °F 79% 29.83 in 10.0 mi NNW 8.1 mph - N/A   Clear
5:58 AM 37.6 °F 32.3 °F 29.3 °F 72% 29.83 in 10.0 mi NNW 6.9 mph - N/A   Clear
6:58 AM 42.8 °F 36.2 °F 37.4 °F 81% 29.85 in 10.0 mi North 12.7 mph - N/A   Clear
7:58 AM 45.7 °F 39.8 °F 38.8 °F 77% 29.86 in 10.0 mi North 12.7 mph - N/A   Clear
8:58 AM 48.9 °F - 37.6 °F 65% 29.86 in 10.0 mi NNE 13.8 mph - N/A   Clear
9:58 AM 51.3 °F - 36.7 °F 57% 29.84 in 10.0 mi NNE 12.7 mph 17.3 mph N/A   Scattered Clouds
10:58 AM 57.6 °F - 34.2 °F 41% 29.81 in 10.0 mi ENE 9.2 mph - N/A   Mostly Cloudy
11:58 AM 59.0 °F - 33.4 °F 38% 29.83 in 10.0 mi Variable 4.6 mph - N/A   Mostly Cloudy
12:58 PM 58.6 °F - 35.6 °F 42% 29.84 in 10.0 mi South 11.5 mph - N/A   Mostly Cloudy
1:58 PM 57.2 °F - 34.5 °F 43% 29.87 in 10.0 mi South 12.7 mph - N/A   Scattered Clouds
1:59 PM 57.2 °F - 35.6 °F 44% 29.96 in 10.0 mi SSW 11.5 mph - N/A Rain Light Rain
2:04 PM 57.2 °F - 35.6 °F 44% 29.96 in 10.0 mi West 13.8 mph - N/A   Light Drizzle
2:09 PM 55.4 °F - 35.6 °F 47% 29.97 in 10.0 mi West 17.3 mph - N/A   Scattered Clouds
2:20 PM 53.6 °F - 37.4 °F 54% 29.98 in 10.0 mi WNW 15.0 mph 26.5 mph N/A Rain Light Rain
2:24 PM 53.6 °F - 39.2 °F 58% 29.98 in 7.0 mi WNW 15.0 mph - N/A Rain Light Rain
2:34 PM 51.8 °F - 39.2 °F 62% 29.99 in 9.0 mi NW 13.8 mph 26.5 mph N/A Rain , Thunderstorm Light Rain
2:54 PM 50.0 °F - 41.0 °F 71% 30.00 in 10.0 mi NNE 15.0 mph - N/A Rain Light Rain
2:55 PM 50.0 °F - 41.0 °F 71% 29.99 in 10.0 mi NNE 16.1 mph - N/A   Scattered Clouds
2:58 PM 50.0 °F - 40.5 °F 70% 29.94 in 10.0 mi NNE 15.0 mph - 0.01 in   Scattered Clouds
2:59 PM 50.0 °F - 41.0 °F 71% 29.99 in 10.0 mi NE 13.8 mph - N/A Rain Light Rain
3:11 PM 50.0 °F - 41.0 °F 71% 29.99 in 10.0 mi ENE 9.2 mph - N/A   Partly Cloudy
3:19 PM 50.0 °F - 41.0 °F 71% 29.99 in 10.0 mi ENE 11.5 mph - N/A   Light Drizzle
3:29 PM 50.0 °F - 42.8 °F 76% 29.99 in 10.0 mi ENE 9.2 mph - N/A   Partly Cloudy
3:58 PM 52.2 °F - 40.5 °F 64% 29.93 in 10.0 mi SE 3.5 mph - 0.00 in   Scattered Clouds
4:23 PM 53.6 °F - 37.4 °F 54% 29.98 in 10.0 mi Variable 2.3 mph - N/A   Light Drizzle
4:34 PM 53.6 °F - 39.2 °F 58% 29.99 in 10.0 mi Variable 3.5 mph - N/A   Partly Cloudy
4:58 PM 54.7 °F - 39.4 °F 56% 29.91 in 10.0 mi Variable 1.2 mph - 0.00 in   Scattered Clouds
5:08 PM 53.6 °F - 39.2 °F 58% 29.99 in 10.0 mi WSW 8.1 mph - N/A   Light Drizzle
5:17 PM 53.6 °F - 39.2 °F 58% 29.98 in 10.0 mi WSW 6.9 mph - N/A   Partly Cloudy
5:58 PM 54.0 °F - 35.6 °F 50% 29.91 in 10.0 mi NNE 19.6 mph 20.7 mph 0.00 in   Scattered Clouds
6:01 PM 53.6 °F - 39.2 °F 58% 30.01 in 10.0 mi NNE 18.4 mph 26.5 mph N/A Rain Light Rain
6:21 PM 46.4 °F 42.4 °F 42.8 °F 87% 30.03 in 2.5 mi NNE 8.1 mph 23.0 mph N/A Rain Heavy Rain
6:31 PM 46.4 °F 43.5 °F 41.0 °F 81% 30.02 in 2.5 mi Variable 5.8 mph - N/A Rain Rain
6:36 PM 46.4 °F 41.5 °F 42.8 °F 87% 30.03 in 4.0 mi WNW 10.4 mph - N/A Rain Light Rain
6:41 PM 46.4 °F 42.4 °F 42.8 °F 87% 30.03 in 10.0 mi WNW 8.1 mph - N/A   Light Drizzle
6:42 PM 46.4 °F 42.4 °F 42.8 °F 87% 30.03 in 10.0 mi WNW 8.1 mph - N/A   Scattered Clouds
6:58 PM 46.6 °F - 43.3 °F 88% 29.96 in 10.0 mi NNW 6.9 mph - 0.08 in   Partly Cloudy
7:05 PM 46.4 °F 42.4 °F 42.8 °F 87% 30.03 in 10.0 mi NNW 8.1 mph - N/A   Light Drizzle
7:16 PM 46.4 °F 43.5 °F 42.8 °F 87% 30.04 in 10.0 mi NW 5.8 mph - N/A   Partly Cloudy
7:19 PM 46.4 °F 43.5 °F 42.8 °F 87% 30.04 in 10.0 mi NW 5.8 mph - N/A   Light Drizzle
7:29 PM 46.4 °F 45.2 °F 42.8 °F 87% 30.04 in 10.0 mi NW 3.5 mph - N/A   Partly Cloudy
7:40 PM 46.4 °F 45.2 °F 44.6 °F 93% 30.05 in 10.0 mi NW 3.5 mph - N/A Rain Light Rain
7:52 PM 46.4 °F - 42.8 °F 87% 30.05 in 10.0 mi NW 1.2 mph - N/A   Scattered Clouds
7:58 PM 47.1 °F - 42.6 °F 84% 29.97 in 10.0 mi WNW 1.2 mph - 0.00 in   Scattered Clouds
8:29 PM 48.2 °F - 41.0 °F 76% 30.06 in 10.0 mi NNW 2.3 mph - N/A Rain Light Rain
8:34 PM 48.2 °F - 42.8 °F 82% 30.06 in 10.0 mi NNW 1.2 mph - N/A Rain Light Rain
8:39 PM 48.2 °F - 42.8 °F 82% 30.06 in 10.0 mi NNW 1.2 mph - N/A   Light Drizzle
8:44 PM 48.2 °F - 42.8 °F 82% 30.06 in 10.0 mi West 1.2 mph - N/A Rain Light Rain
8:54 PM 46.4 °F - 44.6 °F 93% 30.07 in 10.0 mi Calm Calm - N/A   Mostly Cloudy
8:58 PM 47.1 °F - 43.7 °F 88% 29.97 in 10.0 mi Calm Calm - 0.00 in   Mostly Cloudy
9:48 PM 46.4 °F - 44.6 °F 93% 30.09 in 10.0 mi Calm Calm - N/A   Mostly Cloudy
9:58 PM 46.4 °F - 44.6 °F 93% 29.97 in 10.0 mi Calm Calm - N/A   Overcast
10:13 PM 46.4 °F - 44.6 °F 93% 30.10 in 10.0 mi Calm Calm - N/A   Overcast
10:18 PM 46.4 °F - 44.6 °F 93% 30.10 in 10.0 mi NNW 2.3 mph - N/A   Overcast
10:33 PM 46.4 °F - 44.6 °F 93% 30.10 in 10.0 mi North 2.3 mph - N/A   Overcast
10:53 PM 46.4 °F - 44.6 °F 93% 30.08 in 10.0 mi North 2.3 mph - N/A   Mostly Cloudy
10:58 PM 45.5 °F 44.2 °F 45.3 °F 99% 29.95 in 10.0 mi North 3.5 mph - N/A   Mostly Cloudy
11:03 PM 44.6 °F 43.1 °F 44.6 °F 100% 30.09 in 10.0 mi North 3.5 mph - N/A   Scattered Clouds
11:58 PM 41.7 °F 38.8 °F 41.4 °F 99% 29.96 in 10.0 mi North 4.6 mph - N/A   Clear